SCP
-0 -0 -0 -0 -0 -0 -0 0 0 -0 -0 -0 -0 -0 -0 0 -0 -0 -0 -0 -0 -0 -0 -0 -0 -0 0 0 0 0 0 0 0 0 0 0 0 0 0 0 0 -0 0
-0 -0 -0 -0 -0 -0 -0 -0 -0 0 -0 -0 -0 -0 -0 -0 -0 -0 -0 -0 -0 -0 -0 -0 -0 -0 -0 0 0 0 0 0 0 0 0 0 -0 0 0 0 0 0 0
-0 -0 -0 -0 -0 -0 -0 -0 -0 -0 0 -0 0 0 -0 -0 -0 -0 -0 -0 -0 -0 -0 -0 -0 -0 -0 0 0 0 0 0 0 0 0 0 0 0 0 0 0 0 0
-0 0 -0 -0 -0 -0 -0 -0 -0 -0 0 0 0 0 0 0 -0 -0 -0 -0 -0 -0 -0 -0 -0 -0 -0 0 0 0 0 0 0 0 0 0 0 0 0 0 0 0 0
-0 -0 -0 -0 -0 -0 -0 -0 -0 -0 -0 0 0 0 0 0 0 0 -0 -0 -0 -0 -0 -0 -0 -0 -0 -0 0 0 0 0 0 0 0 0 0 0 0 0 0 0 0
-0 -0 -0 -0 -0 -0 -0 -0 -0 -0 0 0 0 0 0 0 0 0 -0 -0 -0 -0 -0 -0 -0 -0 -0 -0 -0 0 0 0 0 0 0 0 0 0 0 0 0 0 0
-0 0 -0 -0 -0 -0 -0 -0 -0 -0 0 0 0 0 0 0 0 0 0 0 0 0 0 -0 -0 -0 -0 -0 -0 -0 0 0 0 0 0 0 0 0 0 0 0 0 0
-0 -0 -0 -0 -0 -0 -0 -0 -0 0 0 0 0 0 0 0 0 0 0 0 0 0 0 0 -0 -0 0 -0 -0 0 0 0 0 0 0 0 0 0 0 0 0 0 0
0 -0 -0 -0 -0 -0 -0 -0 0 0 0 0 0 0 0 0 0 0 0 0 0 0 0 0 0 0 0 0 0 0 0 0 0 0 0 0 0 0 0 0 0 0 0
0 0 0 0 0 0 0 0 0 0 0 0 0 0 1 0 0 0 0 0 0 0 0 0 0 0 0 0 0 0 0 0 0 0 0 0 0 0 0 0 0 0 0
0 0 0 0 0 0 0 0 0 0 0 0 0 0 0 0 0 0 0 0 0 0 1 0 0 0 0 0 0 0 0 0 0 0 0 0 0 0 0 0 0 0 0
0 0 0 0 0 0 0 0 1 0 0 0 0 0 0 0 0 0 0 0 1 0 0 0 0 0 0 0 0 0 0 0 0 0 0 0 0 0 0 0 0 0 0
0 0 0 0 0 0 0 0 1 0 0 0 0 0 0 0 0 0 0 0 0 0 0 0 0 0 0 0 0 0 0 0 0 0 0 0 0 0 0 0 0 0 0
0 0 0 0 0 0 0 1 1 0 0 0 0 0 0 0 0 0 0 0 0 0 0 0 0 0 0 0 0 0 0 0 0 0 0 0 0 0 0 0 0 0 0
0 0 0 0 0 -0 0 1 1 0 0 0 0 0 0 0 0 0 0 0 0 0 0 0 0 0 0 0 0 0 0 0 0 0 0 0 0 0 0 0 0 0 0
0 0 0 0 0 -0 0 0 1 0 0 0 0 0 0 0 0 0 0 0 0 0 0 0 0 0 0 0 0 0 0 0 0 0 0 0 0 0 0 0 0 0 0
0 0 0 0 0 0 0 0 0 0 0 0 0 0 0 0 0 0 0 0 0 0 0 0 0 0 0 0 0 0 0 0 0 0 0 0 0 0 0 0 0 0 0
0 0 -0 0 0 -0 0 0 0 0 0 0 0 0 0 0 0 0 0 0 0 0 0 0 0 0 0 0 0 0 0 0 0 0 0 0 0 0 0 0 0 1 1
0 0 0 -0 0 -0 0 0 0 0 0 0 0 0 0 0 0 0 0 0 0 0 0 0 0 0 0 0 0 0 0 0 0 0 0 0 0 0 0 0 1 1 1
0 0 0 0 0 0 0 0 0 0 0 0 0 0 0 0 0 0 0 0 0 0 0 0 0 0 0 0 0 0 0 0 0 0 0 0 0 0 0 0 0 0 1
0 0 0 0 0 0 0 1 0 0 0 0 0 0 0 0 0 0 0 0 0 0 0 0 0 0 0 0 0 0 0 0 0 0 0 0 0 0 0 0 0 0 0
-0 -0 0 0 0 0 0 1 0 0 0 0 0 0 0 0 0 0 0 0 0 0 0 0 0 0 0 0 0 0 0 0 0 0 0 0 0 0 0 0 0 0 0
0 0 -0 -0 -0 0 0 1 0 0 0 0 0 0 0 0 0 0 0 0 0 0 0 0 0 0 0 0 0 0 0 0 0 0 0 0 0 0 0 0 0 0 0
0 0 0 0 -0 -0 0 0 0 0 0 0 0 0 0 0 0 0 0 0 0 0 0 0 0 0 0 0 0 0 0 0 0 0 0 0 0 0 0 0 0 0 0
0 0 0 0 0 0 0 0 0 0 0 0 0 0 0 0 0 0 0 0 0 0 0 0 0 0 0 0 0 0 0 0 0 0 0 0 0 0 -0 0 0 0 0
0 0 0 0 0 0 0 0 0 0 0 0 0 0 0 0 0 0 0 0 0 0 0 0 0 0 0 0 0 0 0 0 0 0 0 0 0 0 0 0 0 0 0
Wind_Speed_500mb
40 36 33 29 26 23 20 18 17 19 21 23 25 26 28 30 33 34 35 36 35 35 34 32 32 30 27 24 20 18 15 13 11 9 8 9 13 14 17 23 22 17 11
41 40 35 29 25 22 19 18 17 17 18 20 22 24 28 30 32 33 33 32 33 33 32 33 34 33 30 26 23 20 18 15 13 9 4 1 5 6 8 16 20 18 13
42 40 35 29 25 22 19 16 16 15 16 17 20 22 25 26 28 28 29 29 30 32 35 36 36 35 29 25 21 19 17 15 12 8 2 5 3 6 1 7 15 16 14
37 34 32 29 25 22 18 15 13 14 15 16 18 20 22 23 23 24 25 27 30 33 34 38 39 37 32 28 22 18 17 17 14 8 3 1 8 19 8 4 12 12 12
34 30 29 27 24 20 16 13 12 11 11 13 14 16 18 18 19 20 21 24 28 30 29 33 39 38 34 31 29 24 21 24 19 12 5 5 5 15 4 10 6 9 10
32 28 26 23 21 17 13 11 10 10 10 11 11 13 15 15 13 15 18 19 21 24 25 24 31 34 27 21 19 15 18 22 16 16 10 10 6 9 13 18 14 10 7
26 22 21 20 18 15 13 10 11 10 10 11 11 13 14 14 10 13 11 14 14 15 17 20 23 28 32 24 20 17 18 21 16 18 13 9 9 12 10 19 19 12 9
24 20 22 20 18 17 15 14 14 14 13 14 16 19 21 16 13 13 7 6 7 8 11 15 18 29 32 37 31 25 19 21 18 12 14 10 8 8 15 21 19 17 12
21 10 15 19 19 20 19 17 15 15 16 18 21 24 25 20 16 12 8 4 1 7 11 16 20 30 35 40 41 29 22 24 22 17 7 7 4 1 9 14 15 9 8
21 17 7 17 17 20 20 21 20 20 19 19 17 20 25 22 17 17 13 9 7 8 13 16 23 31 38 45 43 37 29 26 29 28 22 15 12 12 16 16 17 14 12
32 27 18 18 20 21 25 27 25 21 17 15 18 22 24 24 28 26 23 18 14 15 17 21 30 35 42 48 43 42 34 31 30 35 37 25 23 22 24 27 25 23 22
40 34 29 22 27 26 30 31 28 22 20 15 26 28 25 33 33 31 29 24 23 20 24 30 33 43 51 49 49 44 35 32 33 29 30 29 23 27 30 32 29 28 21
43 42 35 32 32 34 34 33 32 23 26 21 24 29 38 33 32 27 23 21 20 29 28 33 37 50 48 49 48 40 40 40 34 31 33 35 31 32 34 39 37 29 24
51 52 44 47 37 33 34 27 25 26 27 27 27 33 34 30 28 26 27 21 28 29 33 30 44 43 46 48 45 42 45 48 47 43 40 41 36 33 32 39 41 39 31
11 19 32 52 42 42 27 25 26 29 28 28 25 26 25 37 41 45 31 28 34 29 28 36 40 39 44 45 45 49 57 58 57 56 46 49 48 36 40 43 47 48 39
5 23 30 29 30 50 31 27 25 27 27 27 22 18 22 29 36 39 36 36 33 34 34 37 41 41 46 48 47 53 60 58 49 46 40 40 46 46 42 45 54 57 48
13 50 53 5 38 67 30 24 28 26 19 18 16 20 25 32 38 41 44 41 35 39 38 40 44 45 49 50 49 55 61 57 56 55 53 49 47 46 47 49 47 53 54
31 45 38 42 40 52 30 18 13 11 13 17 23 24 22 27 39 42 45 43 40 43 45 47 49 49 50 55 55 59 64 54 49 51 51 48 49 50 44 48 49 51 57
22 37 31 14 29 26 11 11 12 12 16 22 24 29 32 35 39 46 48 46 50 52 53 52 54 50 53 54 57 62 62 44 42 46 38 47 45 44 38 44 44 48 53
18 18 1 11 20 19 9 9 12 15 22 29 33 35 37 40 44 47 48 51 54 51 56 57 52 51 56 55 59 65 50 41 36 33 22 35 23 33 30 28 35 37 36
15 8 12 3 2 6 12 19 20 16 26 35 35 37 40 45 44 47 50 47 48 53 54 55 51 56 52 53 65 61 50 29 28 10 22 17 6 19 26 27 36 40 48
19 22 6 14 14 15 24 23 21 18 28 31 36 39 41 42 43 47 45 46 50 52 53 50 51 56 53 47 46 50 29 41 18 29 10 15 5 7 19 28 29 36 38
11 20 7 26 23 20 26 25 22 26 32 36 41 37 30 27 28 34 38 37 38 39 41 49 49 47 47 42 33 30 17 12 28 26 14 15 19 10 5 12 19 21 28
17 21 3 10 27 26 25 25 25 30 36 38 31 24 27 33 34 32 35 43 46 49 51 42 39 43 36 42 36 38 39 35 24 26 17 21 23 19 17 10 5 14 21
23 20 22 29 26 22 26 28 29 30 39 49 47 40 43 35 40 47 49 49 46 45 46 52 50 46 44 37 35 36 41 37 37 40 35 28 17 21 22 33 27 12 11
22 20 20 16 21 25 29 35 38 40 42 39 32 29 33 39 42 46 41 37 50 50 45 48 39 36 37 44 46 42 38 36 25 26 27 26 27 23 21 17 21 23 30
Wind_Direction_500mb
174 167 157 161 157 147 137 126 119 117 118 117 114 109 106 101 94 89 83 77 70 62 55 49 43 39 39 42 44 45 39 28 29 40 45 37 37 42 58 67 56 55 92
164 167 161 163 159 151 143 138 135 131 126 120 114 112 108 104 98 92 84 74 65 58 50 43 37 32 30 31 36 40 35 34 30 34 74 355 6 16 39 73 73 60 52
169 165 163 165 163 160 153 150 148 143 135 127 123 122 119 113 104 94 84 72 61 50 46 47 42 32 28 26 27 34 26 22 24 29 16 265 257 260 347 77 75 69 56
173 167 164 168 169 167 164 161 157 150 143 140 135 129 127 118 104 86 74 64 56 50 59 49 39 31 25 22 24 32 30 10 6 4 220 26 339 233 210 191 125 94 65
177 167 168 174 175 175 172 170 166 162 158 150 144 139 134 126 114 101 80 64 50 50 48 44 43 34 32 37 48 53 29 6 355 340 267 249 42 172 230 245 175 130 118
175 168 172 179 182 185 187 187 181 178 183 172 169 159 151 139 124 108 75 61 46 38 34 35 38 36 34 32 26 33 4 352 6 5 318 260 191 245 276 219 212 176 162
165 166 180 190 193 198 201 202 205 197 205 200 195 181 169 158 139 140 87 59 47 38 21 15 14 17 17 358 341 342 348 340 355 3 341 276 243 222 223 213 224 196 185
150 167 186 190 199 207 207 213 216 216 220 224 216 200 191 183 159 144 126 68 40 19 355 356 355 351 346 351 340 323 327 328 341 356 5 354 265 216 226 221 226 226 216
168 180 199 201 200 208 212 221 227 232 236 242 228 214 211 203 196 183 175 207 350 341 325 336 338 337 334 330 337 321 311 300 316 326 321 315 306 239 231 242 235 243 250
190 202 198 206 209 216 220 222 223 231 236 244 255 239 231 224 221 223 225 235 250 291 293 309 317 323 325 327 320 323 299 286 282 298 297 284 295 255 248 245 250 251 248
207 213 204 204 205 219 220 222 232 233 240 252 263 250 246 242 240 245 249 250 246 272 279 296 309 318 319 321 318 323 312 308 288 280 285 285 268 256 252 249 243 239 240
214 215 214 212 204 220 227 231 244 247 237 292 295 269 247 268 256 251 249 251 237 262 295 299 311 318 317 320 321 320 318 315 306 285 267 272 263 252 249 251 247 241 245
222 222 230 216 211 220 229 234 244 262 248 279 284 272 270 261 255 254 254 260 260 289 291 301 310 317 321 323 321 318 316 312 306 293 269 266 268 258 245 246 236 236 258
226 224 226 227 221 227 236 247 264 272 267 284 280 278 281 227 246 259 266 277 295 300 302 302 315 324 325 321 318 316 316 311 304 294 273 262 263 256 240 242 231 237 257
296 300 257 246 240 242 255 259 249 259 269 276 275 281 262 235 248 262 269 283 293 297 299 309 320 326 329 325 322 319 318 310 307 304 287 269 259 253 244 230 234 238 251
260 278 253 265 244 254 246 282 258 256 274 274 268 268 251 243 237 263 268 280 277 295 307 318 321 323 330 327 323 317 317 314 309 306 298 281 258 249 241 240 232 237 244
3 342 278 246 226 268 240 269 278 266 264 268 261 274 275 254 259 266 271 273 287 306 305 311 315 319 328 323 318 320 320 313 308 305 296 282 263 246 243 240 240 235 239
338 9 49 236 257 270 259 278 256 249 257 265 263 271 263 279 274 279 276 267 290 297 300 303 309 314 319 319 318 320 324 316 312 309 304 290 266 248 243 242 243 238 233
350 340 4 136 240 222 266 313 269 264 263 270 270 284 297 289 282 275 274 276 287 287 289 291 296 305 309 312 313 320 321 316 310 311 312 297 288 243 248 240 237 234 227
315 318 173 194 188 199 257 301 260 263 280 278 278 290 297 297 289 272 276 280 280 281 290 293 293 301 308 310 314 319 313 315 306 306 308 331 293 234 245 231 216 209 208
355 222 225 92 305 273 290 292 250 256 270 278 283 289 296 295 291 281 285 288 287 291 287 286 295 297 296 305 311 315 308 315 311 297 284 319 267 200 204 212 206 213 212
9 15 338 242 318 307 280 286 262 271 278 282 285 284 284 284 279 278 277 283 285 285 292 293 291 292 295 298 305 307 310 314 303 303 274 266 251 189 200 192 191 198 195
14 348 316 235 285 311 301 278 277 289 291 289 284 282 287 292 294 290 285 289 291 292 297 296 296 291 302 304 295 289 295 283 298 304 306 236 253 285 252 216 215 223 222
329 329 258 314 322 298 312 308 303 314 305 293 286 279 300 315 309 299 303 307 310 311 311 303 293 300 304 299 292 286 286 268 268 284 245 247 289 282 265 248 207 225 237
320 321 306 309 331 314 322 314 310 309 304 301 308 322 329 329 322 321 321 320 321 322 315 309 303 297 293 290 295 299 286 279 265 254 269 283 266 289 289 278 272 249 229
341 333 353 329 326 317 316 319 321 316 314 323 332 335 332 326 321 316 312 317 318 317 315 312 303 298 298 295 296 277 277 270 258 262 266 277 282 290 311 281 258 245 238
Wind_Speed_850mb
40 36 33 29 26 23 20 18 17 19 21 23 25 26 28 30 33 34 35 36 35 35 34 32 32 30 27 24 20 18 15 13 11 9 8 9 13 14 17 23 22 17 11
41 40 35 29 25 22 19 18 17 17 18 20 22 24 28 30 32 33 33 32 33 33 32 33 34 33 30 26 23 20 18 15 13 9 4 1 5 6 8 16 20 18 13
42 40 35 29 25 22 19 16 16 15 16 17 20 22 25 26 28 28 29 29 30 32 35 36 36 35 29 25 21 19 17 15 12 8 2 5 3 6 1 7 15 16 14
37 34 32 29 25 22 18 15 13 14 15 16 18 20 22 23 23 24 25 27 30 33 34 38 39 37 32 28 22 18 17 17 14 8 3 1 8 19 8 4 12 12 12
34 30 29 27 24 20 16 13 12 11 11 13 14 16 18 18 19 20 21 24 28 30 29 33 39 38 34 31 29 24 21 24 19 12 5 5 5 15 4 10 6 9 10
32 28 26 23 21 17 13 11 10 10 10 11 11 13 15 15 13 15 18 19 21 24 25 24 31 34 27 21 19 15 18 22 16 16 10 10 6 9 13 18 14 10 7
26 22 21 20 18 15 13 10 11 10 10 11 11 13 14 14 10 13 11 14 14 15 17 20 23 28 32 24 20 17 18 21 16 18 13 9 9 12 10 19 19 12 9
24 20 22 20 18 17 15 14 14 14 13 14 16 19 21 16 13 13 7 6 7 8 11 15 18 29 32 37 31 25 19 21 18 12 14 10 8 8 15 21 19 17 12
21 10 15 19 19 20 19 17 15 15 16 18 21 24 25 20 16 12 8 4 1 7 11 16 20 30 35 40 41 29 22 24 22 17 7 7 4 1 9 14 15 9 8
21 17 7 17 17 20 20 21 20 20 19 19 17 20 25 22 17 17 13 9 7 8 13 16 23 31 38 45 43 37 29 26 29 28 22 15 12 12 16 16 17 14 12
32 27 18 18 20 21 25 27 25 21 17 15 18 22 24 24 28 26 23 18 14 15 17 21 30 35 42 48 43 42 34 31 30 35 37 25 23 22 24 27 25 23 22
40 34 29 22 27 26 30 31 28 22 20 15 26 28 25 33 33 31 29 24 23 20 24 30 33 43 51 49 49 44 35 32 33 29 30 29 23 27 30 32 29 28 21
43 42 35 32 32 34 34 33 32 23 26 21 24 29 38 33 32 27 23 21 20 29 28 33 37 50 48 49 48 40 40 40 34 31 33 35 31 32 34 39 37 29 24
51 52 44 47 37 33 34 27 25 26 27 27 27 33 34 30 28 26 27 21 28 29 33 30 44 43 46 48 45 42 45 48 47 43 40 41 36 33 32 39 41 39 31
11 19 32 52 42 42 27 25 26 29 28 28 25 26 25 37 41 45 31 28 34 29 28 36 40 39 44 45 45 49 57 58 57 56 46 49 48 36 40 43 47 48 39
5 23 30 29 30 50 31 27 25 27 27 27 22 18 22 29 36 39 36 36 33 34 34 37 41 41 46 48 47 53 60 58 49 46 40 40 46 46 42 45 54 57 48
13 50 53 5 38 67 30 24 28 26 19 18 16 20 25 32 38 41 44 41 35 39 38 40 44 45 49 50 49 55 61 57 56 55 53 49 47 46 47 49 47 53 54
31 45 38 42 40 52 30 18 13 11 13 17 23 24 22 27 39 42 45 43 40 43 45 47 49 49 50 55 55 59 64 54 49 51 51 48 49 50 44 48 49 51 57
22 37 31 14 29 26 11 11 12 12 16 22 24 29 32 35 39 46 48 46 50 52 53 52 54 50 53 54 57 62 62 44 42 46 38 47 45 44 38 44 44 48 53
18 18 1 11 20 19 9 9 12 15 22 29 33 35 37 40 44 47 48 51 54 51 56 57 52 51 56 55 59 65 50 41 36 33 22 35 23 33 30 28 35 37 36
15 8 12 3 2 6 12 19 20 16 26 35 35 37 40 45 44 47 50 47 48 53 54 55 51 56 52 53 65 61 50 29 28 10 22 17 6 19 26 27 36 40 48
19 22 6 14 14 15 24 23 21 18 28 31 36 39 41 42 43 47 45 46 50 52 53 50 51 56 53 47 46 50 29 41 18 29 10 15 5 7 19 28 29 36 38
11 20 7 26 23 20 26 25 22 26 32 36 41 37 30 27 28 34 38 37 38 39 41 49 49 47 47 42 33 30 17 12 28 26 14 15 19 10 5 12 19 21 28
17 21 3 10 27 26 25 25 25 30 36 38 31 24 27 33 34 32 35 43 46 49 51 42 39 43 36 42 36 38 39 35 24 26 17 21 23 19 17 10 5 14 21
23 20 22 29 26 22 26 28 29 30 39 49 47 40 43 35 40 47 49 49 46 45 46 52 50 46 44 37 35 36 41 37 37 40 35 28 17 21 22 33 27 12 11
22 20 20 16 21 25 29 35 38 40 42 39 32 29 33 39 42 46 41 37 50 50 45 48 39 36 37 44 46 42 38 36 25 26 27 26 27 23 21 17 21 23 30
Wind_Direction_850mb
174 167 157 161 157 147 137 126 119 117 118 117 114 109 106 101 94 89 83 77 70 62 55 49 43 39 39 42 44 45 39 28 29 40 45 37 37 42 58 67 56 55 92
164 167 161 163 159 151 143 138 135 131 126 120 114 112 108 104 98 92 84 74 65 58 50 43 37 32 30 31 36 40 35 34 30 34 74 355 6 16 39 73 73 60 52
169 165 163 165 163 160 153 150 148 143 135 127 123 122 119 113 104 94 84 72 61 50 46 47 42 32 28 26 27 34 26 22 24 29 16 265 257 260 347 77 75 69 56
173 167 164 168 169 167 164 161 157 150 143 140 135 129 127 118 104 86 74 64 56 50 59 49 39 31 25 22 24 32 30 10 6 4 220 26 339 233 210 191 125 94 65
177 167 168 174 175 175 172 170 166 162 158 150 144 139 134 126 114 101 80 64 50 50 48 44 43 34 32 37 48 53 29 6 355 340 267 249 42 172 230 245 175 130 118
175 168 172 179 182 185 187 187 181 178 183 172 169 159 151 139 124 108 75 61 46 38 34 35 38 36 34 32 26 33 4 352 6 5 318 260 191 245 276 219 212 176 162
165 166 180 190 193 198 201 202 205 197 205 200 195 181 169 158 139 140 87 59 47 38 21 15 14 17 17 358 341 342 348 340 355 3 341 276 243 222 223 213 224 196 185
150 167 186 190 199 207 207 213 216 216 220 224 216 200 191 183 159 144 126 68 40 19 355 356 355 351 346 351 340 323 327 328 341 356 5 354 265 216 226 221 226 226 216
168 180 199 201 200 208 212 221 227 232 236 242 228 214 211 203 196 183 175 207 350 341 325 336 338 337 334 330 337 321 311 300 316 326 321 315 306 239 231 242 235 243 250
190 202 198 206 209 216 220 222 223 231 236 244 255 239 231 224 221 223 225 235 250 291 293 309 317 323 325 327 320 323 299 286 282 298 297 284 295 255 248 245 250 251 248
207 213 204 204 205 219 220 222 232 233 240 252 263 250 246 242 240 245 249 250 246 272 279 296 309 318 319 321 318 323 312 308 288 280 285 285 268 256 252 249 243 239 240
214 215 214 212 204 220 227 231 244 247 237 292 295 269 247 268 256 251 249 251 237 262 295 299 311 318 317 320 321 320 318 315 306 285 267 272 263 252 249 251 247 241 245
222 222 230 216 211 220 229 234 244 262 248 279 284 272 270 261 255 254 254 260 260 289 291 301 310 317 321 323 321 318 316 312 306 293 269 266 268 258 245 246 236 236 258
226 224 226 227 221 227 236 247 264 272 267 284 280 278 281 227 246 259 266 277 295 300 302 302 315 324 325 321 318 316 316 311 304 294 273 262 263 256 240 242 231 237 257
296 300 257 246 240 242 255 259 249 259 269 276 275 281 262 235 248 262 269 283 293 297 299 309 320 326 329 325 322 319 318 310 307 304 287 269 259 253 244 230 234 238 251
260 278 253 265 244 254 246 282 258 256 274 274 268 268 251 243 237 263 268 280 277 295 307 318 321 323 330 327 323 317 317 314 309 306 298 281 258 249 241 240 232 237 244
3 342 278 246 226 268 240 269 278 266 264 268 261 274 275 254 259 266 271 273 287 306 305 311 315 319 328 323 318 320 320 313 308 305 296 282 263 246 243 240 240 235 239
338 9 49 236 257 270 259 278 256 249 257 265 263 271 263 279 274 279 276 267 290 297 300 303 309 314 319 319 318 320 324 316 312 309 304 290 266 248 243 242 243 238 233
350 340 4 136 240 222 266 313 269 264 263 270 270 284 297 289 282 275 274 276 287 287 289 291 296 305 309 312 313 320 321 316 310 311 312 297 288 243 248 240 237 234 227
315 318 173 194 188 199 257 301 260 263 280 278 278 290 297 297 289 272 276 280 280 281 290 293 293 301 308 310 314 319 313 315 306 306 308 331 293 234 245 231 216 209 208
355 222 225 92 305 273 290 292 250 256 270 278 283 289 296 295 291 281 285 288 287 291 287 286 295 297 296 305 311 315 308 315 311 297 284 319 267 200 204 212 206 213 212
9 15 338 242 318 307 280 286 262 271 278 282 285 284 284 284 279 278 277 283 285 285 292 293 291 292 295 298 305 307 310 314 303 303 274 266 251 189 200 192 191 198 195
14 348 316 235 285 311 301 278 277 289 291 289 284 282 287 292 294 290 285 289 291 292 297 296 296 291 302 304 295 289 295 283 298 304 306 236 253 285 252 216 215 223 222
329 329 258 314 322 298 312 308 303 314 305 293 286 279 300 315 309 299 303 307 310 311 311 303 293 300 304 299 292 286 286 268 268 284 245 247 289 282 265 248 207 225 237
320 321 306 309 331 314 322 314 310 309 304 301 308 322 329 329 322 321 321 320 321 322 315 309 303 297 293 290 295 299 286 279 265 254 269 283 266 289 289 278 272 249 229
341 333 353 329 326 317 316 319 321 316 314 323 332 335 332 326 321 316 312 317 318 317 315 312 303 298 298 295 296 277 277 270 258 262 266 277 282 290 311 281 258 245 238